| time (UTC) | temp F | wind direction | speed MPH | gust MPH | rain 1hr in | rain 24hr in | rain mn in | humidity % | barometer mb |
| 20260831134508 | 66 | 186 | 0.0 | 1.0 | 0.00 | 0.02 | 0.02 | 97 | 1011.9 |
| 20260831133026 | 66 | 186 | 0.0 | 1.0 | 0.00 | 0.02 | 0.02 | 97 | 1012.0 |
| 20260831131518 | 66 | 186 | 0.0 | 1.0 | 0.00 | 0.02 | 0.02 | 97 | 1011.9 |
| 20260831130024 | 66 | 186 | 0.0 | 1.0 | 0.00 | 0.02 | 0.02 | 97 | 1011.7 |
| 20260831124531 | 66 | 186 | 0.0 | 1.0 | 0.00 | 0.02 | 0.02 | 97 | 1011.7 |
| 20260831123015 | 65 | 186 | 0.0 | 1.0 | 0.00 | 0.02 | 0.02 | 97 | 1011.8 |
| 20260831121514 | 65 | 186 | 0.0 | 1.0 | 0.00 | 0.02 | 0.02 | 96 | 1011.7 |
| 20260831120022 | 65 | 186 | 0.0 | 1.0 | 0.00 | 0.02 | 0.02 | 97 | 1011.6 |
| 20260831114530 | 65 | 186 | 0.0 | 0.0 | 0.00 | 0.02 | 0.02 | 96 | 1011.6 |
| 20260831113033 | 65 | 186 | 0.0 | 2.0 | 0.00 | 0.02 | 0.02 | 96 | 1011.5 |
| 20260831111512 | 65 | 186 | 0.0 | 1.0 | 0.00 | 0.02 | 0.02 | 96 | 1011.6 |
| 20260831110018 | 65 | 186 | 0.0 | 1.0 | 0.00 | 0.02 | 0.02 | 96 | 1011.6 |
| 20260831104525 | 65 | 186 | 0.0 | 2.0 | 0.00 | 0.02 | 0.02 | 96 | 1011.4 |
| 20260831103030 | 65 | 360 | 0.0 | 1.0 | 0.00 | 0.02 | 0.02 | 96 | 1011.6 |
| 20260831101533 | 65 | 175 | 0.0 | 1.0 | 0.00 | 0.02 | 0.02 | 96 | 1011.8 |
| 20260831100022 | 65 | 360 | 0.0 | 1.0 | 0.01 | 0.02 | 0.02 | 96 | 1011.9 |
| 20260831094530 | 65 | 175 | 0.0 | 1.0 | 0.02 | 0.02 | 0.02 | 96 | 1012.2 |
| 20260831093031 | 66 | 185 | 0.0 | 1.0 | 0.02 | 0.02 | 0.02 | 96 | 1012.5 |
| 20260831091531 | 66 | 180 | 0.0 | 1.0 | 0.02 | 0.02 | 0.02 | 96 | 1012.8 |
| 20260831090034 | 66 | 168 | 0.0 | 2.0 | 0.01 | 0.01 | 0.01 | 96 | 1013.2 |
| 20260831084530 | 65 | 168 | 0.0 | 1.0 | 0.00 | 0.00 | 0.00 | 96 | 1013.3 |
| 20260831083039 | 66 | 168 | 0.0 | 1.0 | 0.00 | 0.00 | 0.00 | 96 | 1013.5 |
| 20260831081533 | 66 | 168 | 0.0 | 1.0 | 0.00 | 0.00 | 0.00 | 96 | 1013.6 |
| 20260831080051 | 66 | 149 | 0.0 | 3.0 | 0.00 | 0.00 | 0.00 | 96 | 1013.2 |
| 20260831074536 | 66 | 174 | 0.0 | 2.0 | 0.00 | 0.00 | 0.00 | 96 | 1013.3 |
| 20260831073026 | 66 | 155 | 0.0 | 1.0 | 0.00 | 0.00 | 0.00 | 96 | 1013.6 |
| 20260831071527 | 66 | 360 | 0.0 | 1.0 | 0.00 | 0.00 | 0.00 | 96 | 1013.9 |
| 20260831070031 | 66 | 224 | 0.0 | 2.0 | 0.00 | 0.00 | 0.00 | 96 | 1014.3 |
| 20260831064535 | 66 | 224 | 0.0 | 1.0 | 0.00 | 0.00 | 0.00 | 96 | 1014.1 |
| 20260831063031 | 66 | 225 | 0.0 | 0.0 | 0.00 | 0.00 | 0.00 | 96 | 1014.1 |
| 20260831061524 | 66 | 224 | 0.0 | 1.0 | 0.00 | 0.00 | 0.00 | 96 | 1014.1 |
| 20260831060004 | 66 | 224 | 0.0 | 0.0 | 0.00 | 0.00 | 0.00 | 96 | 1014.6 |
| 20260831054505 | 66 | 224 | 0.0 | 1.0 | 0.00 | 0.00 | 0.00 | 95 | 1014.9 |
| 20260831053003 | 66 | 224 | 0.0 | 1.0 | 0.00 | 0.00 | 0.00 | 96 | 1015.1 |
| 20260831051508 | 66 | 224 | 0.0 | 1.0 | 0.00 | 0.00 | 0.00 | 96 | 1015.1 |
| 20260831050005 | 66 | 224 | 0.0 | 2.0 | 0.00 | 0.00 | 0.00 | 96 | 1014.8 |
| 20260831044515 | 66 | 247 | 0.0 | 1.0 | 0.00 | 0.00 | 0.00 | 96 | 1014.4 |
| 20260831043006 | 66 | 249 | 0.0 | 2.0 | 0.00 | 0.00 | 0.00 | 95 | 1014.6 |
| 20260831041507 | 66 | 189 | 0.0 | 0.0 | 0.00 | 0.00 | 0.00 | 95 | 1014.5 |
| 20260831040004 | 65 | 360 | 0.0 | 0.0 | 0.00 | 0.00 | 0.00 | 95 | 1014.7 |
| 20260831034509 | 65 | 189 | 0.0 | 0.0 | 0.00 | 0.00 | 0.00 | 95 | 1014.7 |
| 20260831033006 | 66 | 176 | 0.0 | 1.0 | 0.00 | 0.00 | 0.00 | 95 | 1014.7 |
| 20260831031515 | 65 | 169 | 0.0 | 1.0 | 0.00 | 0.00 | 0.00 | 94 | 1014.7 |
| 20260831030008 | 65 | 169 | 0.0 | 2.0 | 0.00 | 0.00 | 0.00 | 95 | 1015.0 |
| 20260831024509 | 65 | 118 | 0.0 | 2.0 | 0.00 | 0.00 | 0.00 | 94 | 1014.9 |
| 20260831023007 | 65 | 38 | 0.0 | 1.0 | 0.00 | 0.00 | 0.00 | 94 | 1014.6 |
| 20260831021508 | 65 | 23 | 0.0 | 0.0 | 0.00 | 0.00 | 0.00 | 94 | 1014.6 |
| 20260831020006 | 65 | 23 | 0.0 | 0.0 | 0.00 | 0.00 | 0.00 | 94 | 1014.6 |
| 20260831014510 | 65 | 21 | 0.0 | 1.0 | 0.00 | 0.00 | 0.00 | 94 | 1014.6 |
| 20260831013017 | 65 | 25 | 0.0 | 0.0 | 0.00 | 0.00 | 0.00 | 93 | 1014.6 |
| 20260831011513 | 65 | 23 | 0.0 | 0.0 | 0.00 | 0.00 | 0.00 | 93 | 1014.4 |
| 20260831010015 | 65 | 23 | 0.0 | 0.0 | 0.00 | 0.00 | 0.00 | 93 | 1014.3 |
| 20260831004512 | 66 | 360 | 0.0 | 0.0 | 0.00 | 0.00 | 0.00 | 92 | 1014.2 |
| 20260831003009 | 66 | 360 | 0.0 | 0.0 | 0.00 | 0.00 | 0.00 | 92 | 1014.2 |
| 20260831001512 | 66 | 360 | 0.0 | 1.0 | 0.00 | 0.00 | 0.00 | 92 | 1014.5 |
| 20260831000012 | 66 | 360 | 0.0 | 1.0 | 0.00 | 0.00 | 0.00 | 92 | 1014.6 |
| 20260830234515 | 66 | 360 | 0.0 | 0.0 | 0.00 | 0.00 | 0.00 | 91 | 1014.3 |
| 20260830233019 | 66 | 24 | 0.0 | 1.0 | 0.00 | 0.00 | 0.00 | 90 | 1014.6 |
| 20260830231512 | 66 | 20 | 0.0 | 2.0 | 0.00 | 0.00 | 0.00 | 90 | 1014.4 |
| 20260830230015 | 67 | 360 | 0.0 | 2.0 | 0.00 | 0.00 | 0.00 | 90 | 1014.6 |
| 20260830224512 | 67 | 19 | 0.0 | 1.0 | 0.00 | 0.00 | 0.00 | 90 | 1014.4 |
| 20260830223013 | 67 | 21 | 0.0 | 2.0 | 0.00 | 0.00 | 0.00 | 90 | 1014.7 |
| 20260830221513 | 67 | 68 | 0.0 | 1.0 | 0.00 | 0.00 | 0.00 | 91 | 1014.6 |
| 20260830220014 | 67 | 360 | 0.0 | 2.0 | 0.00 | 0.00 | 0.00 | 90 | 1014.8 |
| 20260830214514 | 67 | 360 | 0.0 | 2.0 | 0.00 | 0.00 | 0.00 | 90 | 1014.6 |
| 20260830213012 | 66 | 360 | 0.0 | 4.0 | 0.00 | 0.00 | 0.00 | 90 | 1014.7 |
| 20260830211515 | 67 | 35 | 0.0 | 2.0 | 0.00 | 0.00 | 0.00 | 90 | 1014.7 |
| 20260830210026 | 67 | 46 | 0.0 | 2.0 | 0.00 | 0.00 | 0.00 | 90 | 1014.7 |
| 20260830204519 | 67 | 161 | 0.0 | 4.0 | 0.00 | 0.00 | 0.00 | 90 | 1014.7 |
| 20260830203015 | 67 | 74 | 0.0 | 1.0 | 0.00 | 0.00 | 0.00 | 90 | 1015.0 |
| 20260830201514 | 67 | 73 | 0.0 | 1.0 | 0.00 | 0.01 | 0.00 | 90 | 1014.8 |
| 20260830200013 | 67 | 70 | 0.0 | 2.0 | 0.00 | 0.01 | 0.00 | 91 | 1014.7 |
| 20260830194521 | 67 | 144 | 0.0 | 1.0 | 0.00 | 0.01 | 0.00 | 91 | 1014.9 |
| 20260830193017 | 66 | 360 | 0.0 | 1.0 | 0.00 | 0.01 | 0.00 | 91 | 1014.8 |
| 20260830191520 | 66 | 360 | 0.0 | 2.0 | 0.00 | 0.01 | 0.00 | 91 | 1015.2 |
| 20260830190016 | 67 | 100 | 0.0 | 5.0 | 0.00 | 0.01 | 0.00 | 91 | 1015.3 |
| 20260830184517 | 67 | 41 | 1.0 | 5.0 | 0.00 | 0.01 | 0.00 | 90 | 1015.1 |
| 20260830183020 | 68 | 343 | 1.0 | 5.0 | 0.00 | 0.01 | 0.00 | 89 | 1015.4 |
| 20260830181510 | 68 | 23 | 0.0 | 3.0 | 0.00 | 0.01 | 0.00 | 90 | 1014.9 |
| 20260830180016 | 67 | 226 | 0.0 | 5.0 | 0.00 | 0.01 | 0.00 | 90 | 1014.9 |
| 20260830174520 | 67 | 186 | 0.0 | 2.0 | 0.00 | 0.01 | 0.00 | 90 | 1015.1 |
| 20260830173004 | 67 | 55 | 0.0 | 2.0 | 0.00 | 0.01 | 0.00 | 90 | 1015.1 |
| 20260830171505 | 67 | 9 | 0.0 | 4.0 | 0.00 | 0.01 | 0.00 | 90 | 1015.5 |
| 20260830170012 | 67 | 58 | 0.0 | 4.0 | 0.00 | 0.01 | 0.00 | 89 | 1015.4 |
| 20260830164532 | 68 | 39 | 0.0 | 6.0 | 0.00 | 0.01 | 0.00 | 89 | 1015.1 |
| 20260830163026 | 68 | 360 | 0.0 | 3.0 | 0.00 | 0.01 | 0.00 | 90 | 1015.1 |
| 20260830161503 | 67 | 90 | 0.0 | 2.0 | 0.00 | 0.01 | 0.00 | 92 | 1015.3 |
| 20260830160006 | 66 | 360 | 0.0 | 3.0 | 0.00 | 0.01 | 0.00 | 92 | 1015.3 |
| 20260830154512 | 66 | 186 | 0.0 | 3.0 | 0.00 | 0.01 | 0.00 | 93 | 1015.2 |
| 20260830153020 | 66 | 260 | 0.0 | 3.0 | 0.00 | 0.01 | 0.00 | 93 | 1014.9 |
| 20260830151523 | 66 | 172 | 0.0 | 1.0 | 0.00 | 0.01 | 0.00 | 94 | 1014.9 |
| 20260830150004 | 65 | 360 | 0.0 | 1.0 | 0.00 | 0.01 | 0.00 | 94 | 1015.0 |
| 20260830144512 | 65 | 360 | 0.0 | 3.0 | 0.00 | 0.01 | 0.00 | 95 | 1014.9 |
| 20260830143027 | 65 | 360 | 0.0 | 1.0 | 0.00 | 0.01 | 0.00 | 95 | 1014.9 |
| 20260830141533 | 65 | 360 | 0.0 | 3.0 | 0.00 | 0.01 | 0.00 | 96 | 1014.7 |
| 20260830140028 | 65 | 33 | 0.0 | 3.0 | 0.00 | 0.01 | 0.00 | 96 | 1014.6 |